Theta_e
287 288 288 288 288 288 288 288 288 288 287 287 287 286 286 286 285 286 284 284 284 284 284 283 283 283 282 282 281 281 280 280 280 279 279 279 279 278 278 278 277 277 277 276 276 276 276 276 275 275 275 275 275 275 274 274 274 274 274 274 273 274 273 272 271 271 273 274 274 274 274 274 273 274 273 274 274 274 277 276 276 276 276 276 276
288 288 288 289 288 288 288 288 288 287 287 286 286 286 286 286 286 285 285 285 284 284 284 283 283 283 282 282 282 281 280 280 280 280 279 279 278 278 277 277 277 277 276 276 276 276 276 275 275 275 275 275 274 274 274 274 274 273 273 273 273 273 274 272 271 271 270 272 272 273 272 274 272 274 273 273 273 275 274 275 276 276 276 276 276
287 287 287 288 288 288 287 287 286 286 286 286 286 286 286 286 286 285 285 284 284 284 284 283 283 283 282 282 281 281 280 280 280 279 279 279 278 278 277 277 277 277 276 276 276 276 275 275 275 274 274 274 274 274 274 273 273 273 272 273 272 272 273 273 271 269 270 270 272 271 272 272 272 272 273 274 275 275 274 275 275 276 277 277 276
287 286 287 287 287 287 287 287 286 286 286 287 286 287 287 286 286 285 285 284 283 284 284 283 283 282 282 282 281 281 280 280 280 279 279 279 278 278 277 277 278 277 277 277 276 275 275 275 274 274 274 273 273 273 273 273 273 272 272 272 272 272 272 272 272 270 270 268 270 271 273 272 272 274 274 275 274 274 275 275 276 276 276 277 277
287 287 286 286 287 287 287 286 286 286 286 287 287 287 287 286 285 285 284 284 284 283 283 283 282 282 282 282 281 281 280 280 280 279 279 279 279 278 278 277 277 277 277 277 277 276 275 275 274 274 274 273 272 272 272 272 272 272 271 272 272 272 272 272 271 271 270 269 269 271 272 272 273 274 274 273 274 274 275 275 275 276 276 276 277
287 287 286 286 286 286 286 286 286 287 287 287 287 287 287 286 285 284 284 284 284 283 283 283 283 282 282 282 281 281 281 280 280 279 279 279 279 278 278 277 278 277 277 277 276 276 275 275 274 274 273 272 272 272 272 272 272 271 271 271 271 271 271 271 271 270 270 269 270 270 272 272 273 273 274 274 274 274 274 275 275 275 275 275 276
288 287 287 286 286 286 285 286 286 287 287 287 287 287 286 286 285 285 284 284 283 283 283 282 283 282 282 282 281 281 280 280 280 279 279 279 278 278 277 277 277 277 276 276 276 275 275 275 274 274 273 273 272 272 272 271 271 271 271 271 271 271 270 270 270 270 270 270 271 272 272 273 273 272 274 275 275 275 273 274 274 275 275 275 275
288 287 287 286 286 287 287 287 287 287 287 287 287 287 286 286 286 285 284 283 283 283 283 283 283 282 282 282 281 281 280 280 279 279 279 278 278 277 277 277 276 276 276 275 275 275 274 274 274 274 273 273 273 272 272 271 272 271 271 271 271 271 270 270 270 270 270 270 271 272 273 272 273 274 275 275 273 273 275 274 272 273 274 275 275
287 287 287 287 287 287 287 287 287 286 286 286 286 286 286 286 286 285 284 283 284 283 283 282 282 281 281 281 281 281 280 280 279 279 278 278 278 277 277 276 276 275 275 274 274 274 273 273 273 273 274 275 276 275 275 274 271 270 271 271 271 271 270 270 270 271 271 272 272 273 272 273 273 273 273 273 273 273 274 274 273 273 274 274 275
286 286 286 286 287 287 287 287 286 286 285 285 286 286 285 285 284 284 284 283 283 282 282 281 281 281 281 280 280 280 280 280 281 283 282 278 278 277 277 276 276 275 275 274 273 273 273 273 273 276 276 277 277 277 278 277 276 273 272 271 271 270 269 269 270 272 272 272 272 272 272 271 272 273 273 274 275 275 274 273 272 273 274 274 275
286 285 285 286 286 286 286 286 286 286 286 286 286 286 285 285 284 284 283 283 282 282 281 281 281 281 281 280 280 280 280 280 283 284 284 284 279 277 276 276 276 275 274 273 272 273 272 273 272 275 276 277 276 278 278 279 278 277 277 276 275 272 270 271 271 273 272 271 272 273 272 272 273 275 274 275 275 274 273 274 274 274 272 271 270
285 285 285 285 285 285 285 286 286 286 285 285 285 285 285 284 284 284 283 282 282 282 281 281 281 281 281 280 280 280 279 282 284 285 285 285 282 278 277 276 275 275 274 274 273 273 272 272 272 273 274 275 275 276 277 279 279 278 278 278 277 277 277 274 273 273 273 272 273 273 273 273 274 274 274 274 273 273 274 274 274 273 272 272 272
283 284 284 284 284 284 284 284 284 285 285 285 285 284 284 284 283 282 282 282 282 281 281 281 280 281 281 280 280 280 279 283 284 285 285 285 284 280 276 276 275 274 274 274 274 273 273 272 272 273 274 277 276 275 275 276 279 279 279 279 279 279 280 280 279 276 276 275 274 274 274 274 274 274 275 274 275 274 274 274 274 274 274 273 274
282 283 283 283 283 283 282 283 283 284 284 284 283 283 282 283 283 283 282 281 281 281 280 280 280 280 280 280 280 280 279 282 285 285 286 286 285 282 276 275 275 274 274 274 274 273 273 272 272 272 273 275 275 274 275 275 276 277 277 277 277 279 281 282 281 281 280 277 276 274 276 276 274 275 275 276 275 274 274 274 275 274 274 273 273
282 282 282 282 283 282 282 281 281 282 282 282 282 282 282 282 282 282 282 281 281 281 280 280 280 280 280 280 279 279 279 282 284 285 286 286 285 283 276 275 275 274 274 274 274 273 273 272 272 272 273 274 274 274 274 275 276 276 276 277 277 276 275 275 275 275 275 275 275 274 275 275 275 276 276 277 276 276 277 276 275 274 273 273 271
282 282 281 281 281 282 281 280 281 281 281 281 280 281 281 281 281 281 280 281 281 281 280 280 280 279 279 279 279 278 278 282 284 285 286 286 286 280 276 275 274 274 274 274 274 273 273 273 273 273 273 273 276 279 277 275 274 273 272 273 273 273 273 275 277 277 276 275 276 275 276 276 278 277 278 279 279 278 278 276 273 271 268 266 265
283 282 281 281 281 281 280 280 279 280 280 279 279 279 279 279 279 278 278 278 279 279 279 280 280 280 279 279 278 278 277 281 284 285 286 286 285 278 275 274 274 273 273 273 273 274 274 274 274 273 274 273 277 280 280 278 273 271 270 270 270 270 272 274 277 279 279 280 280 280 281 281 282 281 281 280 279 278 274 271 268 267 265 264 264
283 282 282 282 281 281 281 280 280 279 279 278 278 279 277 277 278 277 278 277 277 277 276 277 278 278 279 278 278 277 276 279 283 285 286 286 283 276 275 274 273 273 273 273 274 274 274 276 276 274 274 274 279 281 281 277 271 271 270 269 269 269 272 275 275 276 279 279 279 280 279 279 279 279 278 277 277 276 271 267 267 265 264 263 262
282 282 282 282 282 282 281 281 281 280 279 279 278 278 277 277 275 273 275 276 277 277 277 277 276 276 277 278 279 278 276 278 283 285 285 286 282 275 274 273 273 272 273 272 274 274 274 276 277 276 275 276 281 282 281 277 271 271 270 270 270 271 273 275 274 273 274 274 274 273 274 275 274 272 272 275 275 273 269 267 266 263 262 262 263
283 282 282 282 282 282 282 281 281 280 280 280 280 279 278 276 275 274 273 275 274 275 276 276 276 275 276 276 276 277 276 276 281 284 285 286 283 276 274 273 272 272 273 273 273 273 274 275 277 279 278 279 281 282 281 280 273 272 272 272 272 271 274 273 274 274 274 273 273 273 273 273 272 271 270 269 269 268 268 268 268 266 264 263 264
282 282 282 282 282 282 281 281 280 280 280 279 279 278 277 278 276 274 273 272 272 273 274 275 275 275 274 275 275 276 275 275 279 284 285 286 284 278 274 274 274 273 273 273 273 273 273 274 275 279 280 280 281 281 281 281 278 275 274 273 273 274 275 272 274 276 273 271 270 269 269 268 267 268 268 267 266 267 268 269 268 268 267 264 264
281 282 282 282 281 281 281 281 280 279 279 278 278 278 277 275 276 275 274 273 273 273 274 274 274 273 273 274 274 274 275 277 277 282 285 286 284 281 275 275 275 274 273 273 273 273 273 274 274 278 280 280 280 281 281 281 281 276 275 278 278 278 276 274 270 268 267 267 265 265 264 263 262 261 261 264 265 266 267 267 268 269 269 268 267
280 281 281 281 281 281 280 280 280 279 278 278 277 277 276 274 274 274 274 274 274 273 273 273 273 272 272 272 273 274 274 276 279 280 284 285 285 282 279 277 279 275 274 273 273 273 273 273 274 278 280 280 280 281 281 281 281 277 279 279 278 279 276 268 268 266 264 264 263 262 262 260 258 259 261 263 265 267 267 268 268 269 269 269 269
280 280 280 280 280 281 280 279 279 278 278 277 277 277 276 275 274 274 274 274 273 273 273 272 272 272 271 271 272 273 273 274 277 280 282 285 286 284 281 280 280 275 275 274 274 273 273 273 274 279 280 280 280 281 281 281 279 280 279 279 279 276 267 266 265 263 262 261 260 259 258 259 259 260 262 264 266 267 267 268 268 268 268 268 269
278 277 277 278 279 280 280 279 278 278 278 277 276 276 276 274 273 273 273 273 273 273 273 272 272 272 272 271 271 272 272 273 274 278 281 283 285 285 282 281 281 279 274 273 274 273 275 276 277 278 280 281 281 281 281 280 280 279 279 278 273 266 265 263 262 260 259 259 258 256 258 260 262 263 265 266 267 267 266 266 267 267 267 267 267
275 275 276 277 277 278 278 278 279 278 277 277 277 277 276 275 274 274 273 273 273 273 273 272 272 272 272 271 271 270 271 272 273 275 279 281 283 285 283 281 280 279 276 274 276 277 277 277 278 278 280 280 279 277 273 275 278 278 276 271 265 263 262 261 258 258 257 257 258 258 259 261 263 265 265 266 264 264 264 263 263 263 264 264 264
273 273 273 273 274 274 274 275 277 278 277 277 276 276 276 276 275 274 274 273 273 273 273 273 272 272 272 271 270 270 269 271 272 273 276 278 280 282 282 280 280 278 275 274 276 275 276 277 277 279 278 279 276 274 274 274 270 268 264 264 262 261 260 259 258 258 258 257 259 260 262 262 263 262 262 262 262 263 264 263 262 263 263 264 264
270 270 270 270 271 271 272 273 275 276 277 276 276 276 276 276 275 275 274 274 273 273 273 273 273 272 272 272 270 269 269 270 271 272 274 277 279 281 280 278 277 274 273 274 274 275 275 277 277 275 273 270 268 266 266 265 264 263 262 261 261 261 262 265 264 262 262 263 263 263 261 260 259 260 261 261 261 262 263 262 262 262 264 264 263
268 267 267 268 268 270 271 272 273 275 276 276 276 277 276 276 275 275 277 277 276 275 275 274 274 274 273 272 270 269 269 269 270 275 275 278 279 279 278 277 276 273 275 277 274 273 273 271 268 267 266 265 264 263 262 261 261 260 259 259 260 260 260 259 259 260 260 260 258 258 258 259 259 259 260 259 260 260 262 262 263 263 264 264 263
265 265 266 266 267 269 270 271 272 273 274 275 276 276 277 279 278 276 276 278 280 280 280 276 276 275 274 273 273 271 270 271 275 277 278 280 281 282 280 280 278 275 277 279 275 271 270 268 267 267 266 265 264 264 262 262 260 259 258 262 260 259 258 259 259 259 260 259 259 259 259 258 258 257 258 259 260 261 262 265 263 264 263 263 263
264 264 265 266 267 268 269 269 270 271 272 274 275 275 275 276 280 281 280 279 279 280 281 281 281 279 275 273 274 278 276 276 277 278 278 280 281 282 282 280 279 278 279 275 272 270 268 267 267 266 265 265 265 264 262 261 260 259 259 259 259 260 261 259 259 260 260 259 259 259 259 258 258 258 258 259 260 261 261 263 263 263 263 263 263
262 263 264 264 266 266 266 267 268 269 270 271 273 274 274 274 274 278 281 281 281 280 280 281 281 281 280 277 274 273 276 277 277 278 279 280 281 282 282 281 280 279 280 277 270 268 268 267 266 265 265 264 264 263 262 260 260 259 259 258 258 259 259 259 260 260 259 259 258 258 258 258 258 258 259 260 261 261 261 262 262 263 263 264 264
261 261 262 263 263 264 265 265 266 267 268 269 271 272 273 273 273 273 275 280 281 281 280 280 281 281 281 280 279 276 276 277 278 278 279 280 281 281 282 281 280 280 279 273 269 268 267 267 266 265 264 264 263 262 261 260 260 259 259 259 258 259 260 260 262 260 259 259 259 259 259 259 259 259 260 261 261 260 261 262 262 263 263 263 264
260 260 261 261 261 262 263 263 264 265 266 268 269 271 273 273 273 273 273 272 274 278 280 281 280 281 281 280 279 278 278 278 278 278 279 280 281 281 281 280 281 281 277 270 269 267 267 266 265 264 264 264 262 260 259 259 259 258 258 258 259 259 259 260 259 258 258 258 258 258 258 258 259 259 259 260 260 261 261 262 262 262 263 263 263
260 261 262 263 262 263 263 264 264 265 266 268 269 270 271 272 273 273 273 272 272 271 273 275 279 280 278 279 280 279 278 278 278 279 279 280 280 281 282 278 276 276 274 270 268 267 266 265 264 263 263 262 261 260 259 258 258 258 258 258 258 258 258 258 257 257 256 256 256 256 258 258 259 260 260 259 260 260 261 262 262 263 263 263 264
260 260 261 262 263 263 264 266 267 268 269 270 271 271 272 272 273 273 273 273 272 272 272 273 274 278 280 280 280 280 279 279 279 279 279 280 280 281 277 275 274 274 270 268 267 266 265 265 264 262 262 261 260 259 259 258 258 257 258 257 257 257 256 256 256 256 256 256 257 259 260 260 260 259 258 259 260 261 261 262 263 264 264 264 264
259 260 261 262 263 263 263 264 263 264 265 265 266 268 272 273 273 273 273 272 272 272 272 272 272 273 277 277 278 279 280 279 279 279 279 280 281 279 277 275 274 273 267 267 266 265 264 264 263 262 261 260 258 258 258 257 257 256 258 257 256 256 256 255 255 256 256 258 259 259 258 257 257 257 258 259 261 261 262 263 264 264 265 265 265
260 260 261 262 263 263 264 264 264 266 266 266 267 267 268 271 273 272 272 272 272 271 271 271 272 271 272 274 277 276 277 278 279 279 279 279 278 277 276 274 274 270 267 267 266 265 264 263 262 261 260 259 257 257 257 256 256 256 256 256 256 255 258 258 260 260 259 258 257 256 256 256 257 258 259 260 261 262 262 264 264 265 265 264 263
261 262 263 263 265 263 263 264 264 264 265 266 268 270 270 270 271 272 271 271 271 271 271 271 271 271 272 274 275 276 276 274 274 273 275 276 276 277 275 273 272 269 267 266 264 263 263 261 260 260 259 258 257 256 256 255 255 255 255 254 254 254 256 255 255 255 255 255 255 255 255 256 257 258 260 261 262 263 263 264 265 265 264 263 262
261 260 261 262 262 263 263 264 265 265 266 266 265 266 267 269 270 271 271 270 270 270 270 270 270 271 273 274 273 274 273 273 273 273 274 274 275 275 274 272 270 268 265 263 263 263 261 259 259 258 257 257 256 255 255 255 254 254 254 254 253 253 253 253 253 254 254 255 255 255 255 256 257 259 260 262 263 264 264 265 265 264 263 262 262
259 260 261 263 263 263 264 264 265 265 266 266 267 268 269 270 270 271 270 270 270 270 270 270 271 272 273 273 276 276 273 273 273 273 273 274 274 273 271 270 267 265 263 262 262 261 259 258 257 257 256 255 254 254 254 254 254 254 253 253 254 253 253 253 254 254 254 255 254 255 255 256 258 260 261 262 265 265 265 265 264 263 263 262 262
261 261 262 263 264 264 264 265 265 266 267 267 267 268 268 269 270 270 270 270 270 270 270 270 271 272 274 276 277 277 274 273 273 273 273 272 271 269 268 267 266 264 263 262 261 259 258 257 256 255 254 253 253 253 253 253 253 253 253 252 252 253 253 253 254 254 253 253 254 255 256 258 260 262 263 265 264 264 264 264 263 263 262 262 262
259 259 259 260 260 261 261 262 263 265 267 268 268 268 269 269 269 269 269 269 269 269 269 270 270 271 272 276 276 277 273 273 270 271 268 268 267 266 265 265 264 263 262 261 260 259 257 256 255 254 254 253 253 252 252 252 253 252 252 252 252 252 253 253 253 253 252 253 255 257 258 259 260 261 262 263 263 264 264 263 263 262 262 262 261
259 259 259 260 260 260 261 261 262 264 264 265 267 269 269 269 269 269 269 269 269 269 269 270 270 270 271 273 275 274 273 271 268 267 266 266 265 264 263 262 261 260 259 259 259 258 257 255 254 253 253 252 253 253 253 252 252 252 252 252 252 253 252 252 252 252 253 255 256 258 258 259 260 261 262 263 263 263 263 263 263 262 262 261 261
258 258 258 258 259 259 259 260 261 261 263 265 265 268 269 269 269 269 269 269 269 269 269 269 270 270 270 272 273 273 269 267 265 264 264 264 262 261 260 259 257 257 256 256 256 256 255 254 252 251 251 251 250 250 251 250 251 252 252 253 252 254 254 254 254 254 254 255 256 257 258 259 260 261 262 263 264 263 263 263 263 262 262 261 260
258 258 258 258 258 259 259 260 261 262 263 264 265 267 268 268 269 268 268 269 269 269 269 269 269 269 270 272 269 266 265 264 263 263 261 260 260 259 257 255 255 254 253 253 253 253 253 252 251 251 250 249 249 249 249 249 250 250 251 251 252 253 253 252 252 252 253 254 255 257 258 259 260 262 263 263 263 263 263 263 263 262 261 260 260
258 258 258 259 259 259 260 261 261 262 263 265 267 268 268 268 268 268 267 268 268 267 268 268 268 269 268 265 264 264 262 262 261 260 259 258 258 256 255 254 253 252 252 251 251 252 251 251 251 250 250 249 249 249 249 249 249 250 250 250 250 251 251 252 252 252 253 255 256 257 259 260 261 262 263 263 263 263 263 263 263 261 261 261 260
259 259 259 259 259 259 260 260 261 262 264 266 267 267 267 267 267 267 267 267 267 266 267 268 268 264 263 263 262 262 261 260 260 259 258 257 257 255 253 252 252 251 250 250 250 250 250 250 250 249 249 249 249 249 248 249 249 249 249 250 250 251 251 253 252 252 254 255 257 258 259 260 261 262 263 263 262 263 263 263 263 262 261 261 261
260 260 259 260 260 260 260 261 262 263 265 266 266 266 265 266 266 266 265 265 265 266 267 264 262 262 261 261 261 260 259 259 258 257 257 256 254 253 252 252 251 251 250 250 249 249 249 249 248 248 248 249 249 249 248 248 248 249 249 249 250 253 254 254 254 254 256 257 259 260 261 262 263 264 264 262 262 264 264 263 262 261 261 261 260
262 262 261 261 261 261 262 262 264 265 265 265 265 264 264 264 264 264 264 264 265 263 262 261 261 260 260 259 258 258 258 258 257 255 255 255 253 252 252 251 251 250 250 249 248 248 248 247 247 247 248 247 247 248 248 248 249 249 249 250 253 255 255 256 257 257 258 259 261 262 264 265 266 263 261 261 262 263 263 262 261 261 260 260 260
261 261 262 262 262 263 263 263 263 263 263 263 263 263 263 262 262 263 263 263 262 260 260 260 259 259 259 259 258 258 258 257 256 255 254 253 252 252 251 251 250 250 249 248 248 247 247 247 247 247 247 247 247 248 248 248 248 249 250 253 254 255 257 258 258 261 263 264 265 266 266 266 264 262 261 262 263 263 263 262 261 260 260 260 260
Wind_Speed
7 10 8 11 11 12 12 11 13 11 9 9 11 11 10 12 12 12 7 12 12 14 14 14 15 15 15 15 16 15 15 14 13 12 12 12 11 11 10 11 12 10 9 10 8 10 10 10 10 8 8 9 8 7 7 7 6 6 6 6 7 6 7 7 7 7 4 2 2 2 2 0 2 3 6 5 5 6 7 6 7 7 8 8 8
8 8 7 9 11 13 12 9 10 9 11 10 12 11 10 12 12 10 14 13 13 15 14 13 13 14 15 16 15 15 15 15 15 14 14 14 13 10 11 13 12 10 10 12 11 10 10 11 10 9 9 9 8 8 8 8 7 7 7 8 8 8 7 8 7 5 7 1 2 1 2 2 4 3 5 6 6 6 7 7 6 7 7 8 7
5 5 7 8 11 10 8 9 7 8 11 11 13 13 13 12 10 13 14 11 11 12 14 14 15 15 14 14 15 15 16 16 15 15 15 16 16 14 13 14 14 14 14 14 13 11 11 11 11 10 8 9 9 8 8 8 8 8 9 7 8 7 7 7 6 5 5 5 2 1 2 3 4 5 5 6 7 7 8 8 8 7 7 8 8
6 6 7 9 9 8 10 8 7 10 11 12 14 14 13 11 10 12 12 11 13 12 12 14 13 15 15 15 15 15 16 15 15 16 16 17 16 16 15 15 14 14 14 14 13 13 14 12 11 11 10 10 9 8 8 8 9 8 8 8 7 7 6 6 5 5 3 3 1 1 1 2 5 6 7 6 7 7 7 8 7 8 9 8 8
7 7 7 10 9 9 10 8 9 11 13 12 15 15 13 12 9 10 8 10 11 11 12 12 13 14 15 17 18 18 18 17 17 16 15 15 16 15 15 15 15 15 14 13 13 14 14 14 13 12 12 11 9 10 9 11 9 8 9 7 7 6 5 6 5 5 4 5 4 3 5 6 6 7 6 6 6 6 6 7 7 8 8 7 7
8 8 8 9 10 10 10 7 11 13 14 14 15 12 10 9 10 8 10 12 10 11 12 12 13 16 15 15 16 17 16 16 17 18 17 16 15 14 14 15 15 14 14 13 13 13 13 13 12 13 13 14 13 11 11 12 10 9 9 8 7 6 6 6 5 5 4 4 5 6 5 6 4 4 5 5 6 7 7 6 5 6 6 6 5
10 8 9 8 9 9 8 10 11 12 13 14 11 10 11 11 11 12 11 12 12 12 12 14 13 15 16 15 15 15 15 16 16 15 15 16 16 16 15 15 14 13 13 13 12 12 12 12 12 13 14 13 13 13 13 12 10 11 10 9 8 8 7 6 5 4 4 5 6 6 5 4 4 4 3 5 6 6 8 7 6 5 5 7 9
12 10 8 9 8 9 9 10 11 12 11 10 11 11 11 11 13 12 10 13 14 14 14 14 13 11 13 14 14 13 14 14 14 15 15 16 16 16 16 15 15 14 13 12 12 12 12 11 12 13 13 12 12 12 13 12 10 10 9 8 8 7 6 6 5 4 4 5 5 5 3 4 3 3 4 4 5 5 5 6 10 8 7 6 7
13 11 10 9 10 10 9 8 8 9 10 10 11 11 12 12 11 10 11 13 12 13 12 11 11 12 11 11 12 12 14 15 15 15 16 17 16 16 17 17 15 14 13 13 12 11 10 10 10 11 11 13 15 13 13 12 11 10 9 10 9 9 7 5 5 4 4 5 4 3 4 3 3 3 4 4 5 7 5 6 9 8 9 9 6
12 13 12 11 10 10 10 8 8 9 9 10 11 11 10 11 11 12 13 13 12 10 10 12 12 13 13 12 12 12 13 12 13 20 18 16 17 14 14 15 16 15 14 13 12 12 12 11 10 16 18 18 17 18 18 17 15 11 11 11 10 9 8 7 6 6 6 6 5 3 3 3 4 3 4 4 5 5 7 7 10 9 9 11 9
11 11 12 12 12 11 10 9 9 9 10 10 10 10 11 10 11 11 11 11 12 12 12 13 14 13 14 14 14 13 12 11 17 24 25 24 17 15 15 15 15 15 15 16 15 15 13 12 10 15 16 16 15 20 19 20 19 17 17 16 13 11 10 9 8 8 7 6 4 3 5 6 6 5 5 5 5 6 7 8 9 10 11 12 16
10 10 10 10 11 12 11 11 11 10 9 9 9 9 9 9 10 10 10 12 12 11 14 15 13 12 12 13 15 14 13 13 22 25 26 26 20 15 14 13 14 15 15 15 13 10 10 11 12 11 12 14 12 13 16 20 20 19 20 19 19 17 14 10 10 9 8 6 5 5 6 7 6 5 5 4 5 6 8 10 10 11 13 14 12
9 10 11 10 10 10 11 11 11 10 10 10 9 7 8 9 10 9 12 11 9 12 15 13 15 15 14 16 16 14 13 15 22 25 26 26 26 19 12 13 13 15 15 15 14 9 9 8 11 10 10 19 13 11 11 13 18 21 20 20 19 19 18 18 16 9 6 6 6 6 7 6 7 6 2 3 6 10 10 10 10 11 12 12 11
8 10 11 11 11 10 9 10 10 10 9 8 8 7 8 10 10 9 8 6 10 11 11 13 12 12 14 14 13 12 12 14 22 24 25 26 25 20 12 14 14 14 15 14 13 10 11 13 13 12 9 13 11 13 11 11 12 12 13 12 12 15 19 20 20 18 12 6 6 6 7 4 6 5 5 7 9 8 9 8 8 9 8 8 10
8 8 9 10 11 11 10 9 9 9 9 7 6 7 8 8 8 7 7 10 11 12 12 12 12 11 11 11 11 12 12 16 22 24 24 25 25 21 12 12 12 12 13 14 12 11 10 10 9 10 11 14 12 15 14 13 12 11 11 10 9 7 5 4 3 2 2 1 2 2 3 4 7 8 8 7 8 8 7 8 7 6 8 9 11
9 9 10 10 10 11 11 11 10 9 7 7 7 7 7 8 8 7 6 7 6 6 6 7 9 10 10 10 11 12 9 17 21 23 25 24 26 15 12 12 12 12 13 8 8 7 11 12 11 11 13 13 17 24 18 12 11 11 10 7 6 5 4 5 7 7 6 5 5 6 7 8 11 9 8 7 6 6 7 6 7 7 8 10 13
12 12 12 11 11 10 9 9 11 12 11 9 7 7 7 7 6 4 5 6 7 8 8 8 8 10 10 11 11 11 9 16 23 24 25 26 20 12 12 11 11 12 13 10 11 9 12 11 11 10 13 13 19 24 23 18 11 11 9 8 5 4 4 6 11 13 13 13 13 14 14 14 14 14 14 16 11 8 6 8 8 5 8 11 14
11 11 11 11 11 11 10 9 10 10 9 10 10 8 6 5 5 4 6 6 7 7 5 6 6 7 10 11 12 11 9 14 24 24 26 27 19 13 12 12 11 11 11 9 9 11 11 19 15 13 13 13 21 25 25 18 11 11 9 9 8 8 7 8 6 6 12 12 12 11 10 10 13 14 10 9 10 9 5 8 7 5 9 6 12
12 12 12 11 11 10 9 9 9 9 9 9 8 8 7 7 5 4 6 5 6 4 5 6 6 6 8 9 8 11 9 11 22 24 26 27 19 12 12 11 12 11 11 11 9 8 10 14 18 13 11 14 23 24 25 18 10 11 11 9 10 10 9 9 8 6 5 3 2 3 5 8 2 2 3 10 13 10 5 7 6 4 8 8 8
9 9 10 10 10 10 10 9 9 8 8 8 7 7 6 5 5 4 5 6 6 4 5 6 7 7 6 8 8 9 9 9 15 24 25 27 23 14 11 12 13 12 10 10 11 9 10 10 14 19 19 21 23 25 24 22 13 11 10 10 11 11 7 7 7 6 5 5 6 5 4 3 2 2 2 3 4 4 6 6 6 5 7 8 8
9 9 8 9 10 10 9 8 10 9 7 7 5 4 4 5 5 4 5 4 4 5 6 6 6 6 6 7 7 8 8 10 13 23 26 28 25 20 12 13 11 11 12 11 10 11 11 11 10 19 22 22 23 25 24 24 18 12 12 10 8 7 8 6 8 10 3 3 3 1 1 1 1 3 4 3 3 4 5 7 6 7 8 8 9
10 10 9 9 10 10 10 9 8 8 7 6 7 6 3 3 4 4 4 4 6 7 6 5 6 6 5 6 7 8 8 13 10 18 26 28 26 24 14 12 12 12 11 11 10 10 8 7 9 18 25 23 24 24 25 24 23 10 11 15 15 15 9 5 5 5 4 3 2 1 1 3 3 2 3 3 4 5 6 6 7 8 9 9 9
11 11 10 11 11 11 10 9 9 7 7 6 6 8 5 3 4 3 5 5 6 7 6 6 6 6 5 5 5 7 8 10 17 14 22 27 29 25 21 14 19 12 12 13 13 9 6 7 9 21 24 24 24 24 23 24 20 11 19 18 16 17 10 6 6 5 4 3 2 3 3 3 4 3 3 3 4 5 6 6 7 8 10 10 11
11 12 12 12 12 11 10 9 7 6 7 6 6 7 7 5 4 4 5 6 6 7 6 5 6 7 8 7 7 7 7 7 14 18 16 26 26 27 24 21 20 11 9 9 5 5 7 8 12 22 23 23 24 23 22 21 12 18 18 18 18 10 7 6 4 4 4 2 3 4 4 3 3 3 3 3 5 5 7 7 8 10 10 10 11
12 13 13 13 13 11 11 9 8 7 7 6 7 7 8 5 6 5 5 6 7 7 7 6 8 8 8 9 8 7 7 8 8 15 19 19 25 25 26 23 21 20 11 7 6 7 10 17 19 22 22 22 22 22 19 20 19 17 17 15 11 6 5 5 5 4 3 5 5 3 3 3 3 4 5 5 6 7 6 6 7 9 10 12 14
13 14 14 13 13 13 15 14 11 8 8 7 8 8 8 7 7 6 6 7 8 8 8 7 8 8 9 9 10 11 9 8 9 10 13 15 18 25 26 25 24 22 15 10 15 18 18 18 20 21 21 20 15 9 6 8 17 17 15 13 6 5 5 6 5 6 6 4 3 4 4 2 2 4 4 5 4 6 5 7 7 8 8 10 11
14 13 14 13 14 14 16 14 13 10 8 7 7 8 7 7 8 8 7 8 9 9 9 8 8 9 10 9 9 9 10 9 9 9 10 11 11 14 18 17 23 21 14 11 14 12 15 15 12 15 10 17 12 12 12 11 9 8 6 5 5 5 5 6 6 6 4 3 3 3 3 2 2 3 3 3 5 6 5 7 8 9 8 9 11
13 13 15 14 13 14 14 16 16 12 10 8 8 8 8 9 9 10 10 10 10 10 10 10 11 11 10 8 8 9 10 10 10 11 11 11 11 11 13 14 14 13 13 12 12 11 11 13 15 9 7 7 7 5 5 5 5 6 5 5 5 5 6 7 7 4 4 4 2 2 2 2 3 3 3 4 6 6 6 7 8 10 9 8 10
14 16 16 14 15 14 13 12 12 12 11 9 9 10 10 10 11 11 12 10 11 12 11 11 11 10 9 9 10 11 11 13 14 15 14 17 15 13 12 12 12 12 17 22 14 12 11 9 8 9 9 10 8 7 6 5 4 5 6 5 3 4 4 5 6 6 4 3 2 3 3 2 3 3 3 4 6 6 6 7 8 9 10 8 10
16 17 16 15 15 14 12 12 11 11 11 11 11 10 13 18 13 12 12 14 21 20 15 12 11 9 10 10 12 14 16 16 17 24 24 24 25 22 16 19 17 15 23 33 20 15 15 15 15 15 13 12 12 11 10 8 8 6 6 6 5 4 5 5 5 4 4 4 4 3 3 2 3 3 4 6 7 6 7 8 9 8 9 10 10
15 16 15 14 15 14 13 13 12 12 12 12 11 12 11 11 21 26 22 16 16 23 25 24 20 16 12 10 12 21 15 11 20 25 27 27 27 26 22 25 25 27 30 21 15 13 13 13 12 11 11 12 12 12 10 11 12 9 6 5 4 5 6 5 5 5 4 4 4 4 3 3 4 3 5 6 7 7 6 6 7 8 9 10 11
16 16 16 15 16 16 13 13 14 14 13 13 12 12 11 12 10 16 25 26 25 24 25 26 26 24 23 19 11 10 19 20 22 25 27 28 28 28 26 28 29 32 32 28 15 13 13 13 12 12 10 11 10 8 10 12 11 12 8 6 5 5 4 5 5 5 4 4 4 3 3 3 3 4 5 6 8 8 7 7 7 8 9 9 11
18 18 18 17 16 16 15 14 13 13 14 13 13 12 12 11 13 11 10 20 26 25 25 26 26 26 25 25 24 18 17 20 24 26 28 29 29 30 28 30 31 33 32 18 14 13 12 12 11 11 11 11 10 10 11 13 10 9 8 5 4 4 4 4 5 4 4 4 3 3 3 3 4 5 6 7 7 8 8 8 8 8 8 10 11
19 16 16 17 15 13 12 11 13 13 14 15 15 14 12 11 12 12 10 6 10 17 24 27 26 26 27 26 24 24 24 25 26 27 29 30 30 31 27 23 31 35 28 16 13 12 11 11 10 11 10 9 9 9 11 11 10 7 5 4 4 4 5 4 4 3 3 3 2 2 2 3 4 4 6 6 7 8 9 9 8 8 9 9 10
16 18 30 25 14 13 12 13 14 15 16 14 13 11 12 14 12 11 11 11 11 11 10 13 20 26 20 19 22 25 25 26 27 27 29 29 30 30 28 18 20 20 18 13 13 12 13 12 11 11 10 10 10 10 12 11 7 8 6 6 5 4 4 3 2 3 3 3 3 3 4 4 5 6 6 6 7 8 9 9 9 9 9 10 10
15 14 13 17 16 14 14 13 11 11 11 11 11 12 14 14 13 12 11 11 11 10 10 10 10 16 28 25 25 25 26 26 26 28 28 30 30 32 19 16 16 15 13 12 12 11 11 11 10 10 9 8 9 11 12 14 9 8 6 5 5 5 4 4 4 3 3 3 3 4 4 4 4 5 5 7 8 9 9 9 9 10 10 10 9
14 12 14 12 13 11 12 12 14 16 17 18 17 16 13 11 12 12 11 11 11 11 10 8 7 8 15 13 18 23 26 25 26 27 29 29 33 24 15 14 15 12 11 12 12 11 11 9 9 10 10 10 11 11 12 11 8 10 7 6 5 5 4 4 4 3 2 3 4 3 3 5 6 6 5 7 8 8 9 10 10 11 11 12 12
15 14 14 13 13 14 15 15 16 21 18 16 14 14 16 16 12 11 11 11 11 10 10 9 10 10 11 11 13 11 15 23 26 23 24 25 22 16 13 11 12 11 12 12 12 12 11 10 10 10 9 10 13 10 11 12 7 8 8 7 6 5 6 4 3 2 2 1 3 4 4 5 5 6 6 7 9 8 9 10 10 11 12 11 8
12 20 26 29 23 17 14 16 16 15 14 14 12 11 12 14 14 11 10 10 10 10 9 9 10 10 11 9 10 11 14 13 13 14 14 14 15 14 13 13 11 10 11 11 11 11 10 10 9 9 10 11 12 13 13 12 10 9 6 8 6 4 3 2 3 2 2 3 3 4 4 5 5 6 6 7 9 9 10 10 10 10 11 11 11
13 13 18 28 20 20 18 16 14 12 12 12 13 14 15 14 11 9 9 9 10 10 9 10 10 10 9 10 10 12 12 13 13 12 13 14 14 13 12 12 11 11 11 10 9 9 10 10 10 12 12 10 12 13 12 13 10 7 8 6 6 7 4 4 3 4 4 3 4 4 4 5 6 6 7 8 9 9 10 10 10 9 9 11 13
13 13 16 18 20 16 15 15 13 12 12 14 13 11 10 11 12 12 10 9 9 9 10 10 10 9 10 14 24 23 14 14 13 13 12 13 12 11 10 10 10 10 10 10 10 9 11 12 12 10 10 11 13 13 12 11 10 7 6 6 5 4 4 3 4 3 4 3 4 4 4 5 6 7 8 8 10 10 10 10 9 9 10 10 11
12 13 13 12 13 12 12 12 12 16 14 12 11 11 11 11 10 9 10 10 9 9 9 9 9 8 13 26 26 30 16 10 10 10 10 9 8 8 9 9 10 11 11 10 10 12 13 14 11 13 16 14 13 12 11 10 11 10 9 8 7 5 4 4 4 4 4 4 3 4 5 6 7 8 9 10 9 9 9 9 9 10 10 11 11
14 14 14 14 14 14 14 13 13 12 10 9 11 11 12 12 10 8 8 8 8 9 9 9 8 7 10 20 23 27 12 10 8 9 8 8 8 9 10 10 9 9 9 9 8 12 16 15 13 15 16 16 15 15 15 14 10 9 10 9 6 7 5 5 4 4 3 3 4 5 6 7 8 7 8 8 9 9 9 9 10 9 9 10 11
12 13 13 13 12 11 13 13 13 12 11 15 14 11 11 10 10 10 9 9 9 8 9 8 7 8 8 13 16 15 11 9 7 8 9 8 9 9 9 9 10 10 10 9 8 10 13 13 13 11 9 10 9 7 7 8 7 9 8 7 5 5 5 5 5 4 4 3 4 5 6 7 7 8 8 8 8 9 9 9 10 10 10 10 12
12 12 12 11 11 10 11 11 12 14 15 13 13 13 10 9 9 8 9 9 8 8 8 8 7 8 9 10 12 11 7 8 7 7 8 9 9 9 9 10 12 12 11 10 10 11 14 14 15 14 12 8 8 8 8 7 6 5 6 7 7 6 6 6 6 4 4 4 5 5 6 6 7 8 8 8 9 9 9 9 10 10 12 11 12
11 11 11 11 11 11 11 10 12 11 11 12 12 11 8 7 8 8 8 8 7 8 7 7 8 8 9 9 6 6 8 8 9 9 8 8 9 10 12 14 14 14 15 13 11 11 12 15 16 15 14 11 9 7 6 6 5 5 5 5 6 5 4 3 2 2 4 5 6 5 6 7 8 8 9 10 9 8 9 10 10 9 10 12 13
11 10 10 10 11 11 11 11 10 10 11 12 11 9 7 6 6 6 5 6 6 4 6 6 7 8 6 6 7 8 8 9 9 10 9 10 10 11 9 12 15 16 15 14 14 14 15 14 15 16 14 9 6 4 4 4 6 5 4 5 4 4 3 3 4 5 6 5 5 6 7 7 8 8 10 9 8 8 9 10 10 11 11 10 11
9 9 8 9 9 9 10 9 10 12 12 10 8 7 5 4 5 4 4 4 5 4 5 6 5 6 7 7 7 9 9 9 9 10 11 11 11 11 12 17 18 16 16 14 12 12 11 11 10 11 9 6 6 6 6 5 4 4 4 4 5 5 6 6 5 6 6 6 7 7 8 8 8 9 9 7 7 8 10 10 9 9 10 11 12
6 6 7 8 8 9 9 9 9 10 10 7 5 5 3 4 4 4 4 5 5 6 6 6 8 8 8 8 8 8 9 9 10 10 11 11 11 9 9 17 19 16 16 14 11 11 9 8 9 9 9 7 5 5 5 5 4 4 4 4 6 10 11 11 8 7 8 7 7 8 8 8 10 9 6 7 8 9 9 9 9 10 11 11 12
7 4 6 6 7 8 8 9 9 7 2 3 4 4 4 4 5 5 6 6 6 7 7 8 8 8 9 9 9 9 9 10 12 11 11 11 9 7 13 17 15 13 15 11 7 7 8 8 8 8 7 6 5 4 4 4 4 4 4 5 8 10 9 11 12 14 10 7 8 8 8 8 8 6 6 7 8 10 9 8 9 10 10 12 12
9 9 8 5 3 3 1 1 3 4 4 4 5 5 5 5 5 5 6 6 7 7 7 7 8 8 8 8 8 9 10 10 11 11 13 10 10 11 10 14 18 13 9 8 7 7 7 8 7 7 5 3 3 3 3 3 3 4 6 7 8 9 10 10 8 10 15 12 8 8 8 7 5 6 6 6 8 9 9 9 9 9 10 10 12
Wind_Direction
214 225 212 223 221 225 223 214 222 217 217 222 228 227 208 201 202 202 168 194 185 188 190 188 187 186 183 186 185 184 184 183 184 183 186 190 190 189 180 185 188 188 174 177 175 174 178 178 178 178 167 172 172 167 170 170 164 171 174 180 189 188 181 180 193 231 271 213 278 291 349 113 306 248 275 280 286 277 269 267 271 276 281 282 285
233 236 229 231 227 230 229 230 226 213 217 216 222 222 223 214 205 187 200 199 185 192 190 188 188 186 186 187 186 185 185 186 183 184 187 188 189 186 184 185 189 186 180 185 181 181 177 176 180 175 176 173 166 173 172 169 173 172 185 185 193 194 191 181 201 185 248 204 219 164 211 243 254 243 240 259 256 261 266 270 268 259 262 262 263
274 257 242 238 237 237 236 231 224 223 223 222 221 220 218 219 206 204 208 197 195 193 190 188 189 187 188 186 185 186 187 187 186 186 189 188 187 187 186 186 188 185 188 192 185 176 176 184 183 173 170 171 174 173 167 176 175 182 188 189 193 195 193 191 175 204 220 262 199 218 190 234 231 254 247 244 247 249 260 263 264 261 255 258 260
266 251 245 245 242 238 233 228 221 224 225 225 227 225 222 220 213 218 211 194 194 198 193 192 187 189 189 186 187 188 188 189 187 190 189 188 189 189 186 189 192 192 191 188 183 181 183 180 184 176 172 173 173 172 177 176 182 186 187 194 192 192 190 186 197 180 183 216 208 139 200 236 254 257 255 248 246 247 241 253 249 253 254 253 256
273 259 248 251 246 239 238 222 224 226 228 228 230 227 220 218 210 218 217 218 209 194 196 191 191 190 192 191 190 190 190 187 187 189 190 191 191 188 187 190 194 194 192 190 186 185 184 187 179 173 174 174 174 178 180 182 184 183 190 190 188 186 179 184 189 181 194 226 259 247 241 238 239 248 251 261 259 251 248 248 252 253 257 250 249
288 274 263 257 254 245 243 229 229 229 229 231 232 231 230 227 219 211 204 212 211 210 200 193 196 196 198 197 195 193 188 187 189 190 189 187 188 190 190 191 194 192 191 190 188 189 187 184 177 175 177 180 182 180 179 182 180 187 187 187 181 178 181 184 179 185 193 223 234 260 241 254 250 230 239 239 266 283 275 260 256 257 262 274 252
309 290 277 265 266 258 250 239 236 235 233 233 231 224 221 218 213 214 204 209 205 205 208 202 202 199 200 196 197 192 190 191 190 188 189 188 187 187 189 191 192 192 193 189 187 188 188 184 179 179 183 185 180 179 179 179 184 188 186 180 175 176 183 179 181 183 199 223 233 240 251 241 242 279 259 248 254 264 284 292 279 263 266 285 296
332 313 296 287 277 269 256 248 244 242 240 237 232 229 224 218 216 212 199 206 207 207 205 208 210 208 205 200 198 189 188 191 192 190 188 190 189 189 188 190 190 190 187 185 185 188 188 185 183 184 185 185 182 178 176 180 178 183 182 175 177 173 175 178 173 184 209 224 237 244 240 270 265 238 241 252 270 263 247 296 302 305 295 284 283
346 338 322 304 289 278 273 263 256 251 244 240 235 230 226 223 219 210 205 209 208 207 205 205 203 206 210 207 202 197 194 193 191 190 189 189 192 191 189 187 187 186 184 185 184 183 184 186 185 184 185 185 184 180 183 177 172 176 181 176 178 177 178 173 172 184 206 224 236 252 268 270 264 278 272 264 281 295 300 303 296 298 299 298 283
354 353 348 331 313 300 287 278 267 257 250 244 241 235 230 224 216 214 212 210 208 202 199 201 204 205 201 203 200 201 206 203 191 188 187 188 187 189 190 189 185 183 182 181 181 182 183 183 184 182 183 184 184 185 185 185 185 180 174 176 178 176 174 167 180 188 200 215 231 251 269 263 257 248 271 281 288 297 305 309 304 308 305 300 292
356 357 353 345 335 326 315 298 283 269 259 253 250 243 234 226 220 218 214 206 205 201 196 202 204 201 201 200 201 206 208 206 190 191 191 188 184 185 186 188 186 182 181 180 183 181 181 182 178 182 181 182 184 187 187 188 188 188 185 185 185 176 166 175 187 192 195 209 210 234 260 271 273 279 285 296 303 312 309 305 306 312 317 324 319
351 353 350 345 344 337 329 319 308 292 278 265 255 246 241 232 227 221 213 208 206 199 204 206 201 197 200 203 206 208 208 202 194 194 192 190 184 184 186 186 186 187 185 183 182 169 165 170 179 178 179 180 176 185 189 191 191 192 192 191 191 186 184 178 181 189 193 191 211 222 247 260 271 276 285 304 301 301 301 307 307 310 311 306 302
346 350 347 347 345 340 333 327 315 306 294 282 273 263 250 239 233 224 219 215 200 206 211 200 203 200 197 202 208 207 210 202 199 195 192 191 187 182 187 186 185 189 186 184 180 163 163 152 172 181 179 180 177 181 182 190 194 194 194 195 195 196 200 201 199 192 188 199 204 222 233 259 271 268 239 275 295 295 298 295 294 290 292 290 295
346 344 345 344 343 340 336 331 323 312 303 293 283 269 255 244 236 229 227 210 210 214 212 211 210 203 204 203 206 205 208 202 200 198 195 192 188 181 185 184 189 189 187 184 180 166 169 171 175 178 172 177 178 180 184 187 187 190 195 197 200 206 210 214 218 221 219 205 206 226 242 229 259 278 276 276 282 281 286 284 289 289 302 298 303
343 346 342 340 341 341 338 333 324 316 309 297 281 268 255 253 245 231 217 211 212 213 210 211 210 208 206 204 204 205 206 198 200 199 196 191 189 181 182 184 186 188 187 187 182 172 170 173 168 163 162 178 180 181 181 185 185 189 193 195 195 195 197 206 211 178 212 219 223 242 249 253 255 258 264 266 256 254 270 294 318 316 302 300 289
339 344 342 341 340 337 337 333 329 322 311 303 291 270 254 246 243 233 224 227 226 223 225 216 212 209 207 202 206 209 200 196 200 199 195 192 188 181 182 185 185 185 186 173 163 164 176 178 171 171 172 180 185 186 185 177 177 179 183 184 182 188 196 205 207 218 209 206 217 222 228 234 243 247 253 264 287 308 311 326 321 313 322 308 294
339 340 338 336 335 332 331 330 328 328 325 319 299 284 277 267 261 239 229 228 220 217 217 210 210 209 205 204 205 208 198 195 197 196 194 192 186 181 180 183 185 186 187 173 173 169 181 179 176 169 175 181 186 186 184 176 171 175 178 179 179 183 203 203 215 218 221 227 234 243 252 259 273 286 294 299 304 319 337 320 303 326 313 308 297
332 333 330 330 328 328 330 331 328 324 322 316 307 296 281 271 257 230 229 231 228 225 210 213 211 207 206 207 205 205 201 194 195 196 193 193 183 177 179 183 186 184 184 173 172 178 181 182 178 174 176 178 184 185 185 178 171 174 172 175 182 195 203 199 198 218 228 237 239 246 261 274 279 287 301 311 311 314 330 296 299 331 293 280 284
329 330 326 324 322 320 321 324 325 324 320 312 304 294 282 266 254 218 227 228 233 216 202 207 211 206 210 207 199 202 198 196 198 197 194 193 182 172 176 183 183 188 181 176 175 169 176 184 182 177 174 173 182 183 181 175 167 174 173 174 189 199 200 194 196 189 185 160 199 232 260 267 274 69 316 307 300 308 302 279 294 275 273 276 275
317 314 314 315 314 316 317 318 315 316 311 306 305 288 284 278 256 233 232 216 220 207 210 211 208 211 197 197 201 200 194 194 201 200 198 196 183 169 177 181 188 186 181 177 172 177 177 178 183 181 177 180 185 185 186 177 170 174 175 183 193 197 175 189 196 178 182 208 228 213 212 181 200 282 290 294 287 274 271 259 250 245 255 267 268
311 310 305 307 310 309 308 309 312 310 303 295 290 279 256 254 254 244 234 226 203 206 206 208 206 209 197 199 197 199 191 188 201 202 202 202 188 172 184 189 184 179 181 176 180 175 175 179 176 184 182 181 185 189 188 184 176 178 185 187 191 180 177 165 191 205 179 135 117 130 251 294 293 286 286 284 270 257 252 263 254 257 261 265 274
313 311 307 306 305 303 305 304 302 301 304 307 304 292 285 272 252 249 241 224 219 217 209 204 206 205 204 199 200 198 188 189 195 205 205 204 196 181 181 191 179 175 177 183 180 181 172 162 166 185 186 185 188 190 189 190 184 173 190 194 198 199 197 157 120 99 117 139 127 158 260 291 285 283 265 263 255 252 249 249 256 254 252 254 261
311 309 308 307 306 303 299 297 298 303 298 296 288 284 281 269 257 250 245 241 235 230 215 205 199 207 206 211 209 198 191 190 196 201 205 205 202 192 185 179 184 182 181 182 185 173 136 153 163 181 186 186 187 187 187 189 188 175 188 197 197 201 179 110 126 120 121 137 149 228 246 241 253 259 262 263 261 256 253 258 259 260 262 258 259
309 308 307 305 302 297 294 288 282 277 276 273 265 265 259 238 238 230 236 235 241 235 230 214 210 209 207 210 209 203 201 196 201 200 207 208 207 199 189 181 182 177 181 185 165 124 146 152 168 180 185 184 184 185 185 186 181 179 186 193 197 166 108 131 108 128 114 135 219 249 249 237 217 254 250 246 261 273 274 278 274 271 269 269 265
306 304 303 300 297 296 295 290 279 266 258 245 252 250 248 225 232 224 216 232 234 237 234 214 218 221 217 216 208 203 198 199 202 205 204 210 210 197 192 183 184 173 171 166 118 157 164 167 171 182 186 184 183 182 184 186 180 187 190 179 130 90 125 116 142 117 170 208 219 230 244 234 229 251 263 275 281 285 283 278 278 273 274 270 269
303 299 298 298 300 303 303 298 287 265 252 234 236 239 238 228 224 224 207 223 227 234 236 224 224 224 230 225 208 195 192 193 203 205 206 208 212 204 189 186 179 172 157 155 161 165 168 171 174 183 189 188 181 165 125 169 183 175 151 121 114 125 127 135 133 161 193 194 195 221 235 243 241 256 280 292 290 281 284 284 281 277 271 275 278
298 299 297 300 301 301 299 297 295 287 256 244 234 238 230 225 224 225 215 218 225 231 234 230 227 226 231 227 212 188 175 198 202 204 203 206 203 207 187 184 174 159 148 155 160 164 171 171 176 179 171 169 147 140 138 134 118 104 84 105 118 139 145 155 164 162 171 173 206 222 229 243 277 290 285 281 280 276 277 275 273 274 276 275 277
298 298 298 299 296 293 290 288 287 283 275 250 244 241 230 222 225 224 216 213 217 226 226 228 226 222 226 219 202 201 203 202 203 200 204 200 201 197 178 174 170 159 155 154 156 156 156 166 170 160 142 113 110 86 98 97 115 113 108 110 127 137 163 163 159 156 175 186 204 230 281 264 268 264 272 273 270 275 271 268 269 276 273 275 280
302 299 296 293 286 285 284 284 282 281 276 265 242 238 236 226 226 234 225 217 214 221 220 227 227 223 217 208 193 204 209 213 210 196 200 198 191 188 176 176 166 164 162 155 147 145 144 145 134 144 152 151 143 147 141 129 118 114 119 129 141 159 150 145 160 176 167 155 192 213 237 243 262 265 264 269 264 267 265 264 266 267 276 265 269
296 290 287 286 284 282 281 279 279 280 276 272 267 256 234 233 231 228 240 219 223 224 220 226 222 212 216 214 196 200 206 213 201 197 200 200 201 196 183 174 166 159 164 161 152 153 162 163 169 170 169 166 169 169 171 168 163 153 168 171 165 163 166 164 163 151 169 167 182 194 223 230 252 255 263 262 274 263 261 268 273 272 277 281 282
287 282 280 277 278 281 282 283 281 279 276 274 267 265 269 242 236 239 238 233 221 229 230 232 230 220 210 219 213 219 228 222 204 202 201 201 200 199 185 178 168 166 165 157 158 164 168 173 175 173 173 173 174 172 166 169 162 143 160 166 158 174 170 166 173 169 166 164 179 195 211 219 248 256 265 267 273 276 268 257 258 272 271 279 282
281 281 279 278 279 278 278 276 278 276 275 274 268 266 260 265 257 235 240 240 237 235 234 234 233 231 227 219 204 210 217 211 200 202 204 201 200 199 189 178 171 170 171 162 162 176 176 175 175 176 173 175 178 166 165 140 148 141 143 159 175 179 173 172 173 162 168 165 182 198 210 225 236 250 257 270 275 274 275 274 267 268 276 276 275
277 278 277 278 277 276 275 272 270 270 270 267 267 259 258 255 257 263 238 237 238 234 234 234 233 232 227 224 215 202 198 201 202 202 202 203 201 200 191 179 173 174 169 168 176 172 178 177 174 174 175 180 173 171 164 160 159 153 155 155 145 167 167 168 163 160 159 168 177 206 218 234 242 259 265 271 274 278 278 276 278 271 270 278 281
271 271 274 274 274 271 267 266 269 268 268 269 270 271 264 253 251 251 252 232 237 239 237 234 232 231 229 224 220 216 210 203 202 202 202 202 201 200 192 184 177 178 174 173 172 175 172 173 175 176 179 176 169 157 148 141 138 138 144 152 148 153 158 158 157 160 162 197 200 231 251 252 254 259 264 265 265 271 276 277 281 282 283 280 287
265 265 269 271 269 267 262 263 261 262 263 261 258 252 252 256 252 248 239 233 226 224 218 225 229 227 224 222 219 215 210 206 202 201 201 201 201 200 191 178 183 185 178 172 170 169 170 175 174 177 176 170 169 165 159 133 146 150 153 159 155 155 151 150 157 160 168 173 201 221 230 243 246 249 255 271 275 278 279 280 281 278 283 288 289
265 264 265 266 267 269 270 270 271 271 269 267 255 244 245 247 244 240 238 234 230 222 224 215 210 217 220 220 215 213 210 206 202 201 201 200 199 196 190 186 184 184 174 169 165 168 167 172 167 168 167 163 155 153 152 137 151 149 146 145 152 157 151 157 162 155 180 190 219 236 242 242 251 259 263 263 265 270 274 277 280 282 282 284 288
264 264 265 264 264 259 259 256 256 260 264 267 273 278 276 256 240 236 233 230 226 225 221 207 192 207 219 218 213 210 206 203 202 202 201 199 197 197 195 188 182 174 162 167 163 158 168 169 164 161 162 161 161 157 147 147 144 135 153 155 152 150 152 151 159 163 182 203 225 229 248 258 262 257 260 269 275 271 273 278 281 285 289 293 300
260 262 264 264 260 261 260 260 264 264 260 254 246 247 254 258 249 236 232 228 222 219 212 201 197 196 196 208 193 198 204 200 201 203 203 200 200 200 193 183 182 164 168 167 169 162 165 163 161 163 160 152 148 153 147 130 143 140 142 130 136 143 174 181 203 177 182 215 247 254 253 257 256 263 269 270 275 277 276 278 285 293 298 296 293
253 262 269 274 274 270 264 265 265 267 270 273 277 270 250 240 241 240 233 227 223 215 211 203 199 197 199 190 180 185 188 188 195 198 197 197 200 196 186 181 177 159 159 162 158 159 157 155 151 150 144 144 150 151 146 137 136 135 143 128 128 137 174 141 164 188 211 227 241 246 248 262 267 268 268 271 273 274 279 285 288 293 298 301 298
276 282 278 275 273 270 270 268 267 260 253 248 243 245 261 270 267 247 230 221 216 210 207 203 201 200 191 176 176 179 183 190 192 193 194 194 195 192 178 173 168 161 152 150 153 152 148 142 145 136 142 151 146 136 139 134 134 132 135 141 136 154 175 174 179 186 211 217 235 249 253 262 270 272 271 268 268 275 284 290 293 292 291 289 292
269 268 271 270 267 266 261 260 255 246 240 243 251 257 262 256 242 235 230 224 217 213 207 205 204 196 184 185 186 182 182 188 190 193 196 191 189 178 167 162 151 141 140 145 149 147 147 143 142 142 143 135 128 133 136 134 129 139 135 148 147 154 165 178 191 205 217 227 238 249 260 266 272 274 271 270 279 288 288 289 288 290 289 286 286
265 264 266 270 269 269 262 255 248 245 241 240 238 236 241 248 253 235 222 215 213 211 209 209 204 193 194 192 190 188 185 189 188 190 188 180 165 155 148 144 142 142 146 150 151 145 138 134 136 133 128 133 130 131 126 138 143 138 141 140 154 157 168 189 197 206 209 219 239 247 260 264 266 267 274 285 287 285 286 285 287 290 292 292 294
272 273 272 270 271 273 275 277 281 286 279 253 237 234 236 239 238 233 228 222 216 209 210 205 201 186 190 196 192 192 182 188 187 178 159 154 147 140 140 138 136 131 132 132 130 140 130 126 134 136 140 145 151 149 152 145 154 142 133 134 155 166 182 187 194 205 201 217 238 253 257 264 270 270 273 276 281 287 281 286 290 290 288 290 297
265 266 264 265 264 265 266 270 276 272 270 274 282 268 238 229 224 219 217 215 213 210 208 202 189 184 179 193 191 191 185 172 147 152 151 145 140 136 132 124 123 120 122 124 125 135 133 132 125 119 113 106 117 132 138 142 149 152 157 157 159 174 185 196 198 201 191 206 241 252 260 264 264 273 274 278 284 284 284 288 291 291 294 297 297
261 260 260 260 258 258 259 258 257 259 265 269 262 265 247 225 217 213 211 211 205 202 200 192 179 176 177 182 187 186 150 139 135 129 135 135 130 123 125 121 119 121 120 117 118 130 117 119 118 123 123 125 119 115 121 132 151 153 156 161 165 181 192 199 199 183 179 210 243 249 259 257 271 272 275 278 285 283 286 293 293 295 298 297 297
253 252 251 252 257 256 255 251 253 257 256 252 254 253 242 225 215 209 206 204 200 192 190 178 175 172 178 181 153 124 131 124 124 123 114 114 119 125 116 103 103 113 105 116 119 119 128 128 122 121 124 131 140 119 116 113 138 148 166 179 190 196 189 176 163 187 214 222 236 241 257 262 263 262 270 283 283 279 285 291 290 290 290 297 296
252 242 245 243 250 250 252 251 255 253 252 250 245 246 231 221 216 207 203 196 187 178 171 166 167 171 151 120 126 121 120 123 121 117 117 115 121 123 112 104 100 101 93 94 90 100 99 101 106 100 111 131 123 128 129 136 126 166 179 194 202 216 215 212 213 224 231 226 231 242 252 255 266 270 277 278 277 282 290 289 291 296 298 296 294
246 237 235 235 239 243 247 251 254 257 257 254 236 230 220 213 195 190 169 161 147 141 144 146 128 93 99 98 96 109 110 110 112 115 119 123 124 122 116 114 112 111 102 95 97 90 97 108 112 114 114 122 131 133 143 167 173 181 189 201 206 211 217 214 218 231 232 240 240 240 244 248 256 264 271 267 282 290 292 292 294 296 298 299 302
248 221 218 226 226 236 241 245 248 254 250 236 214 200 176 164 144 123 120 122 127 130 123 102 95 101 93 100 105 105 109 113 118 122 120 120 121 114 110 104 94 97 95 87 95 97 111 108 108 100 105 120 143 151 161 163 184 189 202 205 218 222 225 227 230 236 239 241 241 239 241 245 253 259 267 277 281 287 288 286 292 296 300 300 302
327 256 223 227 228 237 240 243 247 245 230 147 135 117 112 111 109 115 116 116 110 94 94 106 110 112 118 113 114 114 115 118 122 123 121 123 121 110 107 89 83 91 88 97 107 106 106 99 109 109 116 119 143 154 164 172 190 202 208 212 222 227 233 239 241 249 249 245 235 238 244 261 268 271 270 273 283 286 286 284 291 297 299 302 305
357 4 11 11 353 338 353 45 55 53 61 75 78 91 91 89 88 96 101 98 93 97 99 98 102 99 99 105 112 117 119 115 125 124 124 122 122 112 106 100 93 92 95 94 95 96 102 99 104 107 121 132 148 151 172 189 203 207 224 229 237 242 246 245 243 249 251 257 259 266 271 271 264 272 277 286 289 285 280 290 297 296 299 301 305